STARLINK-35862

Last updated on Wed Dec 31 2025 00:02:06 GMT+0000 (Coordinated Universal Time)

1 66628U 25271M 25364.57977751 .00016435 00000+0 41994-3 0 9991 2 66628 53.1596 102.5070 0001383 76.2106 283.9053 15.39621419 6963
UTC large
Height (km)
Speed (km/s)
/
Latitude / Longitude
Inclination (degrees)
Orbital Period (minutes)
Azimuth
Elevation
Range (km)
Doppler Factor

Next 0 passes for location: London (51.5072 / 0.1276)

Sorry there are no passes over London.